This is the latest recevied weather packets stored in our database for station/object SR4DIG-13. If no packets are shown the sender has not sent any weather packets the latest 10 day(s).
| Time | Temp. | Humidity | Pressure | Rain* | Wind** | Luminosity | Snow |
|---|---|---|---|---|---|---|---|
| 1778087287 | 22.78° C | 45% | 1004.5 hPa | 0 mm | - | - | - |
| 1778086986 | 22.78° C | 44% | 1004.4 hPa | 0 mm | - | - | - |
| 1778086686 | 23.33° C | 43% | 1004.5 hPa | 0 mm | - | - | - |
| 1778086027 | 23.33° C | 43% | 1004.3 hPa | 0 mm | - | - | - |
| 1778085726 | 23.33° C | 42% | 1004.3 hPa | 0 mm | - | - | - |
| 1778085425 | 23.33° C | 42% | 1004.2 hPa | 0 mm | - | - | - |
| 1778085124 | 23.89° C | 41% | 1004.3 hPa | 0 mm | - | - | - |
| 1778084823 | 23.89° C | 41% | 1004.2 hPa | 0 mm | - | - | - |
| 1778084522 | 23.89° C | 40% | 1004.2 hPa | 0 mm | - | - | - |
| 1778084222 | 23.89° C | 40% | 1004 hPa | 0 mm | - | - | - |
| 1778083901 | 24.44° C | 39% | 1004 hPa | 0 mm | - | - | - |
| 1778083599 | 24.44° C | 39% | 1004 hPa | 0 mm | - | - | - |
| 1778083299 | 24.44° C | 39% | 1004 hPa | 0 mm | - | - | - |
| 1778082998 | 25° C | 38% | 1004 hPa | 0 mm | - | - | - |
| 1778082397 | 25° C | 38% | 1003.9 hPa | 0 mm | - | - | - |
| 1778082096 | 25° C | 38% | 1003.9 hPa | 0 mm | - | - | - |
| 1778081795 | 25° C | 38% | 1003.9 hPa | 0 mm | - | - | - |
| 1778081494 | 24.44° C | 38% | 1003.9 hPa | 0 mm | - | - | - |
| 1778081194 | 24.44° C | 38% | 1003.9 hPa | 0 mm | - | - | - |
| 1778080893 | 25° C | 38% | 1003.8 hPa | 0 mm | - | - | - |
| 1778080592 | 25° C | 37% | 1003.9 hPa | 0 mm | - | - | - |
| 1778080233 | 25° C | 37% | 1003.8 hPa | 0 mm | - | - | - |
| 1778079932 | 25° C | 37% | 1003.8 hPa | 0 mm | - | - | - |
| 1778079631 | 25° C | 36% | 1003.8 hPa | 0 mm | - | - | - |
| 1778079330 | 25.56° C | 35% | 1003.8 hPa | 1.78 mm | - | - | - |
* Rain since midnight (hover to see other rain measurements)
** Current wind speed in m/s (hover to see current wind gust speed)